Time,TemperatureF,DewpointF,PressureIn,WindDirection,WindDirectionDegrees,WindSpeedMPH,WindSpeedGustMPH,Humidity,HourlyPrecipIn,Conditions,Clouds,dailyrainin,SoftwareType,DateUTC
2013-01-06 00:03:00,35.0,30.9,30.00,SSW,205,17.3,17.3,85,0.00,CLR,,0.00,WeatherDisplay:10.37,2013-01-06 06:03:00,
2013-01-06 00:08:00,35.0,30.9,30.00,SSW,199,19.6,19.6,85,0.00,CLR,,0.00,WeatherDisplay:10.37,2013-01-06 06:08:00,
2013-01-06 00:13:00,34.9,30.8,30.00,SW,215,12.7,12.7,85,0.00,CLR,,0.00,WeatherDisplay:10.37,2013-01-06 06:13:00,
2013-01-06 00:18:00,34.9,30.8,30.00,SW,219,15.0,15.0,85,0.00,CLR,,0.00,WeatherDisplay:10.37,2013-01-06 06:18:00,
2013-01-06 00:23:00,34.9,30.8,29.99,SSW,211,16.1,16.1,85,0.00,CLR,,0.00,WeatherDisplay:10.37,2013-01-06 06:23:00,
2013-01-06 00:28:00,35.0,30.9,29.99,SW,236,17.3,17.3,85,0.00,CLR,,0.00,WeatherDisplay:10.37,2013-01-06 06:28:00,
2013-01-06 00:33:00,35.2,31.1,29.99,SSW,200,16.1,16.1,85,0.00,CLR,,0.00,WeatherDisplay:10.37,2013-01-06 06:33:00,
2013-01-06 00:38:00,35.3,30.9,29.99,SSW,204,17.3,17.3,84,0.00,CLR,,0.00,WeatherDisplay:10.37,2013-01-06 06:38:00,
2013-01-06 00:43:00,35.4,31.0,29.99,WSW,247,19.6,19.6,84,0.00,CLR,,0.00,WeatherDisplay:10.37,2013-01-06 06:43:00,
2013-01-06 00:48:00,35.5,31.1,29.99,SW,219,12.7,12.7,84,0.00,CLR,,0.00,WeatherDisplay:10.37,2013-01-06 06:48:00,
2013-01-06 00:53:00,35.5,31.1,29.99,SSW,209,20.7,20.7,84,0.00,CLR,,0.00,WeatherDisplay:10.37,2013-01-06 06:53:00,
2013-01-06 00:58:00,35.5,31.1,29.98,SSW,201,16.1,16.1,84,0.00,CLR,,0.00,WeatherDisplay:10.37,2013-01-06 06:58:00,
2013-01-06 01:03:00,35.3,30.9,29.98,SSW,211,16.1,16.1,84,0.00,CLR,,0.00,WeatherDisplay:10.37,2013-01-06 07:03:00,
2013-01-06 01:08:00,35.3,30.9,29.98,SW,214,13.8,13.8,84,0.00,CLR,,0.00,WeatherDisplay:10.37,2013-01-06 07:08:00,
2013-01-06 01:13:00,35.2,31.1,29.98,SSW,200,16.1,16.1,85,0.00,CLR,,0.00,WeatherDisplay:10.37,2013-01-06 07:13:00,
2013-01-06 01:18:00,35.2,31.1,29.98,SSW,211,12.0,18.0,85,0.00,CLR,,0.00,WeatherDisplay:10.37,2013-01-06 07:18:00,
2013-01-06 01:23:00,35.3,31.2,29.98,SSW,207,15.0,15.0,85,0.00,CLR,,0.00,WeatherDisplay:10.37,2013-01-06 07:23:00,
2013-01-06 01:28:00,35.3,31.2,29.98,SSW,209,15.0,15.0,85,0.00,CLR,,0.00,WeatherDisplay:10.37,2013-01-06 07:28:00,
2013-01-06 01:33:00,35.4,31.3,29.97,WSW,237,12.7,12.7,85,0.00,CLR,,0.00,WeatherDisplay:10.37,2013-01-06 07:33:00,
2013-01-06 01:38:00,35.5,31.4,29.97,SSW,211,16.1,16.1,85,0.00,CLR,,0.00,WeatherDisplay:10.37,2013-01-06 07:38:00,
2013-01-06 01:43:00,35.5,31.4,29.98,SSW,198,15.0,15.0,85,0.00,CLR,,0.00,WeatherDisplay:10.37,2013-01-06 07:43:00,
2013-01-06 01:48:00,35.6,31.5,29.98,SW,216,20.0,20.0,85,0.00,CLR,,0.00,WeatherDisplay:10.37,2013-01-06 07:48:00,
2013-01-06 01:53:00,35.6,31.5,29.98,SW,217,18.4,18.4,85,0.00,CLR,,0.00,WeatherDisplay:10.37,2013-01-06 07:53:00,
2013-01-06 01:58:00,35.6,31.5,29.97,SSW,209,13.8,13.8,85,0.00,CLR,,0.00,WeatherDisplay:10.37,2013-01-06 07:58:00,
2013-01-06 02:03:00,35.6,31.5,29.97,SSW,199,12.7,12.7,85,0.00,CLR,,0.00,WeatherDisplay:10.37,2013-01-06 08:03:00,
2013-01-06 02:08:00,35.6,31.5,29.97,SSW,193,19.6,19.6,85,0.00,CLR,,0.00,WeatherDisplay:10.37,2013-01-06 08:08:00,
2013-01-06 02:13:00,35.7,31.6,29.97,SSW,205,13.8,13.8,85,0.00,CLR,,0.00,WeatherDisplay:10.37,2013-01-06 08:13:00,
2013-01-06 02:18:00,35.7,31.3,29.97,South,175,17.3,17.3,84,0.00,CLR,,0.00,WeatherDisplay:10.37,2013-01-06 08:18:00,
2013-01-06 02:23:00,35.8,31.4,29.97,WSW,248,13.8,13.8,84,0.00,CLR,,0.00,WeatherDisplay:10.37,2013-01-06 08:23:00,
2013-01-06 02:28:00,35.8,31.4,29.97,SSW,207,10.0,10.0,84,0.00,CLR,,0.00,WeatherDisplay:10.37,2013-01-06 08:28:00,
2013-01-06 02:33:00,35.9,31.5,29.97,SSW,213,17.3,17.3,84,0.01,RA,,0.01,WeatherDisplay:10.37,2013-01-06 08:33:00,
2013-01-06 02:38:00,35.9,31.5,29.97,SSW,194,16.1,16.1,84,0.01,RA,,0.01,WeatherDisplay:10.37,2013-01-06 08:38:00,
2013-01-06 02:43:00,36.0,31.6,29.97,SW,230,13.8,13.8,84,0.01,CLR,,0.01,WeatherDisplay:10.37,2013-01-06 08:43:00,
2013-01-06 02:48:00,36.0,31.6,29.97,SSW,198,16.1,16.1,84,0.01,CLR,,0.01,WeatherDisplay:10.37,2013-01-06 08:48:00,
2013-01-06 02:53:00,36.0,31.6,29.97,SSW,213,16.1,16.1,84,0.01,CLR,,0.01,WeatherDisplay:10.37,2013-01-06 08:53:00,
2013-01-06 02:58:00,36.1,31.7,29.97,SW,219,18.4,18.4,84,0.01,CLR,,0.01,WeatherDisplay:10.37,2013-01-06 08:58:00,
2013-01-06 03:03:00,36.1,31.7,29.96,SSW,202,17.3,17.3,84,0.01,CLR,,0.01,WeatherDisplay:10.37,2013-01-06 09:03:00,
2013-01-06 03:08:00,36.0,31.6,29.96,SW,234,18.4,18.4,84,0.01,CLR,,0.01,WeatherDisplay:10.37,2013-01-06 09:08:00,
2013-01-06 03:13:00,35.9,31.5,29.96,WSW,242,19.6,19.6,84,0.01,CLR,,0.01,WeatherDisplay:10.37,2013-01-06 09:13:00,
2013-01-06 03:18:00,35.9,31.5,29.96,SSW,213,19.0,19.0,84,0.01,CLR,,0.01,WeatherDisplay:10.37,2013-01-06 09:18:00,
2013-01-06 03:23:00,35.9,31.5,29.96,SSW,206,18.4,18.4,84,0.01,CLR,,0.01,WeatherDisplay:10.37,2013-01-06 09:23:00,
2013-01-06 03:28:00,35.8,31.7,29.95,SW,225,11.5,11.5,85,0.01,CLR,,0.01,WeatherDisplay:10.37,2013-01-06 09:28:00,
2013-01-06 03:33:00,35.8,31.7,29.96,SW,225,17.3,17.3,85,0.00,CLR,,0.01,WeatherDisplay:10.37,2013-01-06 09:33:00,
2013-01-06 03:38:00,35.8,31.7,29.95,SW,235,13.8,13.8,85,0.00,CLR,,0.01,WeatherDisplay:10.37,2013-01-06 09:38:00,
2013-01-06 03:43:00,35.7,31.6,29.95,SW,215,13.8,13.8,85,0.00,CLR,,0.01,WeatherDisplay:10.37,2013-01-06 09:43:00,
2013-01-06 03:48:00,35.7,31.6,29.95,SSW,213,16.1,16.1,85,0.00,CLR,,0.01,WeatherDisplay:10.37,2013-01-06 09:48:00,
2013-01-06 03:53:00,35.7,31.6,29.95,SSW,211,13.8,13.8,85,0.00,CLR,,0.01,WeatherDisplay:10.37,2013-01-06 09:53:00,
2013-01-06 03:59:00,35.7,31.6,29.95,SW,215,9.2,9.2,85,0.00,CLR,,0.01,WeatherDisplay:10.37,2013-01-06 09:59:00,
2013-01-06 04:04:00,35.6,31.5,29.95,SSW,200,15.0,15.0,85,0.00,CLR,,0.01,WeatherDisplay:10.37,2013-01-06 10:04:00,
2013-01-06 04:09:00,35.7,31.6,29.95,WSW,240,13.8,13.8,85,0.00,CLR,,0.01,WeatherDisplay:10.37,2013-01-06 10:09:00,
2013-01-06 04:14:00,35.7,31.6,29.95,SSW,202,11.5,11.5,85,0.00,CLR,,0.01,WeatherDisplay:10.37,2013-01-06 10:14:00,
2013-01-06 04:19:00,35.7,31.6,29.94,SSW,204,15.0,15.0,85,0.00,CLR,,0.01,WeatherDisplay:10.37,2013-01-06 10:19:00,
2013-01-06 04:24:00,35.9,31.8,29.94,SSW,192,13.8,13.8,85,0.00,CLR,,0.01,WeatherDisplay:10.37,2013-01-06 10:24:00,
2013-01-06 04:29:00,35.9,31.8,29.94,WSW,248,11.5,11.5,85,0.00,CLR,,0.01,WeatherDisplay:10.37,2013-01-06 10:29:00,
2013-01-06 04:34:00,36.0,31.9,29.94,SW,227,15.0,15.0,85,0.00,CLR,,0.01,WeatherDisplay:10.37,2013-01-06 10:34:00,
2013-01-06 04:39:00,36.0,31.9,29.94,SW,220,11.5,11.5,85,0.00,CLR,,0.01,WeatherDisplay:10.37,2013-01-06 10:39:00,
2013-01-06 04:44:00,36.0,31.9,29.94,SW,234,11.5,11.5,85,0.00,CLR,,0.01,WeatherDisplay:10.37,2013-01-06 10:44:00,
2013-01-06 04:49:00,36.0,31.9,29.94,SW,223,20.7,20.7,85,0.00,CLR,,0.01,WeatherDisplay:10.37,2013-01-06 10:49:00,
2013-01-06 04:54:00,35.9,31.8,29.94,SW,232,12.7,12.7,85,0.00,CLR,,0.01,WeatherDisplay:10.37,2013-01-06 10:54:00,
2013-01-06 04:59:00,35.9,31.8,29.94,SSW,205,15.0,15.0,85,0.00,CLR,,0.01,WeatherDisplay:10.37,2013-01-06 10:59:00,
2013-01-06 05:04:00,35.9,31.8,29.95,WSW,245,16.1,16.1,85,0.00,CLR,,0.01,WeatherDisplay:10.37,2013-01-06 11:04:00,
2013-01-06 05:09:00,35.9,31.8,29.95,West,279,15.0,15.0,85,0.00,CLR,,0.01,WeatherDisplay:10.37,2013-01-06 11:09:00,
2013-01-06 05:14:00,35.8,31.7,29.95,SW,214,11.5,11.5,85,0.00,CLR,,0.01,WeatherDisplay:10.37,2013-01-06 11:14:00,
2013-01-06 05:19:00,35.9,31.8,29.95,SW,223,13.0,13.0,85,0.00,CLR,,0.01,WeatherDisplay:10.37,2013-01-06 11:19:00,
2013-01-06 05:24:00,35.9,31.8,29.95,SW,215,15.0,15.0,85,0.00,CLR,,0.01,WeatherDisplay:10.37,2013-01-06 11:24:00,
2013-01-06 05:29:00,35.9,31.8,29.95,SW,236,12.7,12.7,85,0.00,CLR,,0.01,WeatherDisplay:10.37,2013-01-06 11:29:00,
2013-01-06 05:34:00,35.8,31.7,29.95,SW,236,9.0,9.0,85,0.00,CLR,,0.01,WeatherDisplay:10.37,2013-01-06 11:34:00,
2013-01-06 05:39:00,35.7,31.9,29.95,SW,216,10.4,10.4,86,0.00,CLR,,0.01,WeatherDisplay:10.37,2013-01-06 11:39:00,
2013-01-06 05:44:00,35.7,31.9,29.96,SW,230,10.4,10.4,86,0.00,CLR,,0.01,WeatherDisplay:10.37,2013-01-06 11:44:00,
2013-01-06 05:49:00,35.6,31.8,29.96,SW,232,11.5,11.5,86,0.00,CLR,,0.01,WeatherDisplay:10.37,2013-01-06 11:49:00,
2013-01-06 05:54:00,35.5,31.7,29.96,WSW,253,9.2,9.2,86,0.00,CLR,,0.01,WeatherDisplay:10.37,2013-01-06 11:54:00,
2013-01-06 05:59:00,35.5,31.7,29.96,WSW,237,11.5,11.5,86,0.00,CLR,,0.01,WeatherDisplay:10.37,2013-01-06 11:59:00,
2013-01-06 06:04:00,35.5,31.7,29.96,WSW,239,9.2,9.2,86,0.00,CLR,,0.01,WeatherDisplay:10.37,2013-01-06 12:04:00,
2013-01-06 06:09:00,35.5,31.7,29.97,SSE,161,16.1,16.1,86,0.00,CLR,,0.01,WeatherDisplay:10.37,2013-01-06 12:09:00,
2013-01-06 06:14:00,34.6,29.7,29.98,West,281,24.0,24.0,82,0.00,CLR,,0.01,WeatherDisplay:10.37,2013-01-06 12:14:00,
2013-01-06 06:19:00,33.5,28.0,29.98,NW,309,21.9,21.9,80,0.00,CLR,,0.01,WeatherDisplay:10.37,2013-01-06 12:19:00,
2013-01-06 06:24:00,32.9,27.7,29.98,West,281,19.6,19.6,81,0.00,CLR,,0.01,WeatherDisplay:10.37,2013-01-06 12:24:00,
2013-01-06 06:29:00,32.4,27.2,29.99,WSW,254,18.4,18.4,81,0.00,CLR,,0.01,WeatherDisplay:10.37,2013-01-06 12:29:00,
2013-01-06 06:34:00,32.0,26.8,29.99,WNW,290,17.3,17.3,81,0.00,CLR,,0.01,WeatherDisplay:10.37,2013-01-06 12:34:00,
2013-01-06 06:39:00,31.6,26.1,29.99,West,274,20.7,20.7,80,0.00,CLR,,0.01,WeatherDisplay:10.37,2013-01-06 12:39:00,
2013-01-06 06:44:00,31.3,25.8,29.99,SW,236,26.5,26.5,80,0.00,CLR,,0.01,WeatherDisplay:10.37,2013-01-06 12:44:00,
2013-01-06 06:49:00,31.1,26.0,29.99,WSW,253,20.7,20.7,81,0.00,CLR,,0.01,WeatherDisplay:10.37,2013-01-06 12:49:00,
2013-01-06 06:54:00,31.0,26.1,29.99,WNW,290,23.0,23.0,82,0.00,CLR,,0.01,WeatherDisplay:10.37,2013-01-06 12:54:00,
2013-01-06 06:59:00,30.6,25.5,30.00,WNW,295,19.6,19.6,81,0.00,CLR,,0.01,WeatherDisplay:10.37,2013-01-06 12:59:00,
2013-01-06 07:04:00,30.3,24.9,30.00,West,279,20.7,20.7,80,0.00,CLR,,0.01,WeatherDisplay:10.37,2013-01-06 13:04:00,
2013-01-06 07:09:00,30.2,24.8,30.00,West,275,19.6,19.6,80,0.00,CLR,,0.01,WeatherDisplay:10.37,2013-01-06 13:09:00,
2013-01-06 07:14:00,30.1,24.7,30.00,WNW,296,17.3,17.3,80,0.00,CLR,,0.01,WeatherDisplay:10.37,2013-01-06 13:14:00,
2013-01-06 07:19:00,30.0,24.6,30.00,SW,236,19.6,19.6,80,0.00,CLR,,0.01,WeatherDisplay:10.37,2013-01-06 13:19:00,
2013-01-06 07:24:00,29.9,24.5,30.00,WNW,283,21.9,21.9,80,0.00,CLR,,0.01,WeatherDisplay:10.37,2013-01-06 13:24:00,
2013-01-06 07:29:00,29.7,24.0,30.01,WNW,302,17.3,17.3,79,0.00,CLR,,0.01,WeatherDisplay:10.37,2013-01-06 13:29:00,
2013-01-06 07:34:00,29.6,23.9,30.01,NW,306,19.6,19.6,79,0.00,CLR,,0.01,WeatherDisplay:10.37,2013-01-06 13:34:00,
2013-01-06 07:39:00,29.5,23.5,30.01,WNW,293,20.7,20.7,78,0.00,CLR,,0.01,WeatherDisplay:10.37,2013-01-06 13:39:00,
2013-01-06 07:44:00,29.4,23.4,30.01,WNW,292,17.3,17.3,78,0.00,CLR,,0.01,WeatherDisplay:10.37,2013-01-06 13:44:00,
2013-01-06 07:49:00,29.3,23.3,30.01,WNW,297,20.0,20.0,78,0.00,CLR,,0.01,WeatherDisplay:10.37,2013-01-06 13:49:00,
2013-01-06 07:54:00,29.3,23.3,30.01,SSW,205,17.3,17.3,78,0.00,CLR,,0.01,WeatherDisplay:10.37,2013-01-06 13:54:00,
2013-01-06 07:59:00,29.2,23.2,30.01,West,279,19.6,19.6,78,0.00,CLR,,0.01,WeatherDisplay:10.37,2013-01-06 13:59:00,
2013-01-06 08:04:00,29.3,23.3,30.01,SW,234,12.7,12.7,78,0.00,CLR,,0.01,WeatherDisplay:10.37,2013-01-06 14:04:00,
2013-01-06 08:09:00,29.3,23.6,30.01,WNW,294,20.7,20.7,79,0.00,CLR,,0.01,WeatherDisplay:10.37,2013-01-06 14:09:00,
2013-01-06 08:14:00,29.3,23.6,30.01,WNW,290,12.7,12.7,79,0.00,CLR,,0.01,WeatherDisplay:10.37,2013-01-06 14:14:00,
2013-01-06 08:19:00,29.3,23.6,30.01,West,277,16.1,16.1,79,0.00,CLR,,0.01,WeatherDisplay:10.37,2013-01-06 14:19:00,
2013-01-06 08:24:00,29.3,23.6,30.02,WNW,300,11.0,11.0,79,0.00,CLR,,0.01,WeatherDisplay:10.37,2013-01-06 14:24:00,
2013-01-06 08:29:00,29.2,23.2,30.02,West,278,17.3,17.3,78,0.00,CLR,,0.01,WeatherDisplay:10.37,2013-01-06 14:29:00,
2013-01-06 08:34:00,29.2,23.2,30.02,West,279,18.4,18.4,78,0.00,CLR,,0.01,WeatherDisplay:10.37,2013-01-06 14:34:00,
2013-01-06 08:39:00,29.2,23.2,30.02,WNW,288,19.6,19.6,78,0.00,CLR,,0.01,WeatherDisplay:10.37,2013-01-06 14:39:00,
2013-01-06 08:44:00,29.1,23.4,30.03,WNW,284,19.6,19.6,79,0.00,CLR,,0.01,WeatherDisplay:10.37,2013-01-06 14:44:00,
2013-01-06 08:49:00,29.1,23.4,30.03,West,271,19.6,19.6,79,0.00,CLR,,0.01,WeatherDisplay:10.37,2013-01-06 14:49:00,
2013-01-06 08:54:00,29.1,23.4,30.03,WNW,282,24.2,24.2,79,0.00,CLR,,0.01,WeatherDisplay:10.37,2013-01-06 14:54:00,
2013-01-06 08:59:00,29.1,23.4,30.03,WNW,293,13.0,13.0,79,0.00,CLR,,0.01,WeatherDisplay:10.37,2013-01-06 14:59:00,
2013-01-06 09:04:00,29.2,23.5,30.03,WNW,297,16.1,16.1,79,0.00,CLR,,0.01,WeatherDisplay:10.37,2013-01-06 15:04:00,
2013-01-06 09:09:00,29.1,23.7,30.04,WNW,288,19.6,19.6,80,0.00,CLR,,0.01,WeatherDisplay:10.37,2013-01-06 15:09:00,
2013-01-06 09:14:00,29.0,23.6,30.04,WNW,284,16.1,16.1,80,0.00,CLR,,0.01,WeatherDisplay:10.37,2013-01-06 15:14:00,
2013-01-06 09:19:00,29.0,23.9,30.04,WSW,250,12.7,12.7,81,0.00,CLR,,0.01,WeatherDisplay:10.37,2013-01-06 15:19:00,
2013-01-06 09:24:00,29.0,23.9,30.04,NW,304,11.5,11.5,81,0.00,CLR,,0.01,WeatherDisplay:10.37,2013-01-06 15:24:00,
2013-01-06 09:29:00,28.9,23.8,30.05,WNW,282,20.7,20.7,81,0.00,CLR,,0.01,WeatherDisplay:10.37,2013-01-06 15:29:00,
2013-01-06 09:34:00,28.9,23.5,30.05,WNW,286,16.1,16.1,80,0.00,CLR,,0.01,WeatherDisplay:10.37,2013-01-06 15:34:00,
2013-01-06 09:39:00,28.9,23.8,30.06,West,261,20.0,20.0,81,0.00,CLR,,0.01,WeatherDisplay:10.37,2013-01-06 15:39:00,
2013-01-06 09:44:00,28.7,23.0,30.06,WNW,284,24.2,24.2,79,0.00,CLR,,0.01,WeatherDisplay:10.37,2013-01-06 15:44:00,
2013-01-06 09:49:00,28.6,23.2,30.06,WNW,288,19.6,19.6,80,0.00,CLR,,0.01,WeatherDisplay:10.37,2013-01-06 15:49:00,
2013-01-06 09:54:00,28.6,23.2,30.06,NW,309,15.0,15.0,80,0.00,CLR,,0.01,WeatherDisplay:10.37,2013-01-06 15:54:00,
2013-01-06 09:59:00,28.6,23.2,30.07,West,261,19.6,19.6,80,0.00,CLR,,0.01,WeatherDisplay:10.37,2013-01-06 15:59:00,
2013-01-06 10:04:00,28.3,22.6,30.07,West,279,19.6,19.6,79,0.00,CLR,,0.01,WeatherDisplay:10.37,2013-01-06 16:04:00,
2013-01-06 10:09:00,28.3,22.9,30.07,West,281,13.8,13.8,80,0.00,CLR,,0.01,WeatherDisplay:10.37,2013-01-06 16:09:00,
2013-01-06 10:14:00,28.1,22.4,30.07,WSW,248,18.4,18.4,79,0.00,CLR,,0.01,WeatherDisplay:10.37,2013-01-06 16:14:00,
2013-01-06 10:19:00,28.0,22.3,30.08,WNW,288,23.0,23.0,79,0.00,CLR,,0.01,WeatherDisplay:10.37,2013-01-06 16:19:00,
2013-01-06 10:24:00,27.5,21.8,30.08,WNW,284,18.4,18.4,79,0.00,CLR,,0.01,WeatherDisplay:10.37,2013-01-06 16:24:00,
2013-01-06 10:29:00,27.4,21.4,30.08,WNW,295,24.2,24.2,78,0.00,CLR,,0.01,WeatherDisplay:10.37,2013-01-06 16:29:00,
2013-01-06 10:34:00,27.2,21.5,30.08,WNW,300,26.5,26.5,79,0.00,CLR,,0.01,WeatherDisplay:10.37,2013-01-06 16:34:00,
2013-01-06 10:39:00,27.0,21.4,30.08,WNW,282,24.2,24.2,79,0.00,CLR,,0.01,WeatherDisplay:10.37,2013-01-06 16:39:00,
2013-01-06 10:44:00,26.9,21.6,30.08,WNW,298,21.9,21.9,80,0.00,CLR,,0.01,WeatherDisplay:10.37,2013-01-06 16:44:00,
2013-01-06 10:49:00,26.9,21.6,30.08,WNW,298,20.0,20.0,80,0.00,CLR,,0.01,WeatherDisplay:10.37,2013-01-06 16:49:00,
2013-01-06 10:54:00,26.9,21.6,30.08,WNW,294,15.0,15.0,80,0.00,CLR,,0.01,WeatherDisplay:10.37,2013-01-06 16:54:00,
2013-01-06 10:59:00,26.9,21.3,30.08,NW,311,16.1,16.1,79,0.00,CLR,,0.01,WeatherDisplay:10.37,2013-01-06 16:59:00,
2013-01-06 11:04:00,26.7,21.1,30.08,WNW,298,23.0,23.0,79,0.00,CLR,,0.01,WeatherDisplay:10.37,2013-01-06 17:04:00,
2013-01-06 11:09:00,26.6,21.3,30.08,WNW,282,21.9,21.9,80,0.00,CLR,,0.01,WeatherDisplay:10.37,2013-01-06 17:09:00,
2013-01-06 11:14:00,26.3,21.0,30.08,WNW,292,19.6,19.6,80,0.00,CLR,,0.01,WeatherDisplay:10.37,2013-01-06 17:14:00,
2013-01-06 11:19:00,26.1,20.8,30.09,WNW,294,17.3,17.3,80,0.00,CLR,,0.01,WeatherDisplay:10.37,2013-01-06 17:19:00,
2013-01-06 11:24:00,26.2,20.9,30.09,WNW,302,24.2,24.2,80,0.00,CLR,,0.01,WeatherDisplay:10.37,2013-01-06 17:24:00,
2013-01-06 11:29:00,26.1,20.8,30.09,WNW,285,19.6,19.6,80,0.00,CLR,,0.01,WeatherDisplay:10.37,2013-01-06 17:29:00,
2013-01-06 11:34:00,26.0,20.4,30.09,NW,315,20.7,20.7,79,0.00,CLR,,0.01,WeatherDisplay:10.37,2013-01-06 17:34:00,
2013-01-06 11:39:00,26.1,20.5,30.08,WNW,290,19.0,19.0,79,0.00,CLR,,0.01,WeatherDisplay:10.37,2013-01-06 17:39:00,
2013-01-06 11:44:00,25.9,20.3,30.08,WNW,288,21.9,21.9,79,0.00,CLR,,0.01,WeatherDisplay:10.37,2013-01-06 17:44:00,
2013-01-06 11:49:00,26.1,20.5,30.08,WNW,294,25.3,25.3,79,0.00,CLR,,0.01,WeatherDisplay:10.37,2013-01-06 17:49:00,
2013-01-06 11:54:00,26.1,20.5,30.09,NW,324,20.7,20.7,79,0.00,CLR,,0.01,WeatherDisplay:10.37,2013-01-06 17:54:00,
2013-01-06 11:59:00,25.8,19.9,30.09,WNW,286,25.3,25.3,78,0.00,CLR,,0.01,WeatherDisplay:10.37,2013-01-06 17:59:00,
2013-01-06 12:04:00,25.7,20.1,30.09,West,281,21.9,21.9,79,0.00,CLR,,0.01,WeatherDisplay:10.37,2013-01-06 18:04:00,
2013-01-06 12:09:00,26.0,20.4,30.09,WNW,290,19.6,19.6,79,0.00,CLR,,0.01,WeatherDisplay:10.37,2013-01-06 18:09:00,
2013-01-06 12:14:00,26.2,20.6,30.09,West,277,26.5,26.5,79,0.00,CLR,,0.01,WeatherDisplay:10.37,2013-01-06 18:14:00,
2013-01-06 12:19:00,26.3,20.4,30.09,WNW,296,23.0,23.0,78,0.00,CLR,,0.01,WeatherDisplay:10.37,2013-01-06 18:19:00,
2013-01-06 12:24:00,26.5,20.6,30.09,West,265,19.6,19.6,78,0.00,CLR,,0.01,WeatherDisplay:10.37,2013-01-06 18:24:00,
2013-01-06 12:29:00,26.7,20.8,30.09,WNW,296,20.7,20.7,78,0.00,CLR,,0.01,WeatherDisplay:10.37,2013-01-06 18:29:00,
2013-01-06 12:34:00,26.9,21.0,30.10,WNW,297,26.5,26.5,78,0.00,CLR,,0.01,WeatherDisplay:10.37,2013-01-06 18:34:00,
2013-01-06 12:39:00,26.9,21.0,30.09,WNW,299,23.0,23.0,78,0.00,CLR,,0.01,WeatherDisplay:10.37,2013-01-06 18:39:00,
2013-01-06 12:44:00,26.8,20.9,30.09,WNW,300,20.7,20.7,78,0.00,CLR,,0.01,WeatherDisplay:10.37,2013-01-06 18:44:00,
2013-01-06 12:49:00,26.7,21.1,30.10,WNW,300,17.0,17.0,79,0.00,CLR,,0.01,WeatherDisplay:10.37,2013-01-06 18:49:00,
2013-01-06 12:54:00,26.5,20.6,30.10,NW,310,20.7,20.7,78,0.00,CLR,,0.01,WeatherDisplay:10.37,2013-01-06 18:54:00,
2013-01-06 12:59:00,26.5,20.6,30.10,WNW,297,19.6,19.6,78,0.00,CLR,,0.01,WeatherDisplay:10.37,2013-01-06 18:59:00,
2013-01-06 13:04:00,26.7,21.1,30.10,WNW,302,20.7,20.7,79,0.00,CLR,,0.01,WeatherDisplay:10.37,2013-01-06 19:04:00,
2013-01-06 13:09:00,26.7,20.8,30.11,WNW,297,20.7,20.7,78,0.00,CLR,,0.01,WeatherDisplay:10.37,2013-01-06 19:09:00,
2013-01-06 13:14:00,26.8,21.2,30.11,NW,316,19.6,19.6,79,0.00,CLR,,0.01,WeatherDisplay:10.37,2013-01-06 19:14:00,
2013-01-06 13:19:00,27.2,21.5,30.11,West,281,21.9,21.9,79,0.00,CLR,,0.01,WeatherDisplay:10.37,2013-01-06 19:19:00,
2013-01-06 13:24:00,27.3,21.6,30.11,WNW,295,17.0,17.0,79,0.00,CLR,,0.01,WeatherDisplay:10.37,2013-01-06 19:24:00,
2013-01-06 13:29:00,27.5,21.8,30.11,West,277,11.5,11.5,79,0.00,CLR,,0.01,WeatherDisplay:10.37,2013-01-06 19:29:00,
2013-01-06 13:34:00,27.7,22.0,30.12,NW,305,21.9,21.9,79,0.00,CLR,,0.01,WeatherDisplay:10.37,2013-01-06 19:34:00,
2013-01-06 13:39:00,27.8,22.1,30.12,NW,306,18.4,18.4,79,0.00,CLR,,0.01,WeatherDisplay:10.37,2013-01-06 19:39:00,
2013-01-06 13:44:00,28.1,22.4,30.12,WNW,292,19.6,19.6,79,0.00,CLR,,0.01,WeatherDisplay:10.37,2013-01-06 19:44:00,
2013-01-06 13:49:00,28.1,22.1,30.13,NW,309,20.7,20.7,78,0.00,CLR,,0.01,WeatherDisplay:10.37,2013-01-06 19:49:00,
2013-01-06 13:55:00,28.1,22.4,30.13,WNW,301,18.4,18.4,79,0.00,CLR,,0.01,WeatherDisplay:10.37,2013-01-06 19:55:00,
2013-01-06 14:01:00,28.3,22.6,30.13,NW,323,23.0,23.0,79,0.00,CLR,,0.01,WeatherDisplay:10.37,2013-01-06 20:01:00,
2013-01-06 14:07:00,28.3,22.6,30.14,WNW,296,19.6,19.6,79,0.00,CLR,,0.01,WeatherDisplay:10.37,2013-01-06 20:07:00,
2013-01-06 14:11:00,28.4,22.7,30.14,WNW,288,18.4,18.4,79,0.00,CLR,,0.01,WeatherDisplay:10.37,2013-01-06 20:11:00,
2013-01-06 14:13:00,28.5,22.8,30.14,WNW,298,19.0,19.0,79,0.00,CLR,,0.01,WeatherDisplay:10.37,2013-01-06 20:13:00,
2013-01-06 14:18:00,28.7,23.0,30.14,NW,304,23.0,23.0,79,0.00,CLR,,0.01,WeatherDisplay:10.37,2013-01-06 20:18:00,
2013-01-06 14:23:00,28.8,23.1,30.14,WNW,298,18.4,18.4,79,0.00,CLR,,0.01,WeatherDisplay:10.37,2013-01-06 20:23:00,
2013-01-06 14:28:00,28.9,23.2,30.14,WNW,296,19.6,19.6,79,0.00,CLR,,0.01,WeatherDisplay:10.37,2013-01-06 20:28:00,
2013-01-06 14:33:00,28.9,23.2,30.15,NW,317,19.6,19.6,79,0.00,CLR,,0.01,WeatherDisplay:10.37,2013-01-06 20:33:00,
2013-01-06 14:38:00,29.0,23.3,30.15,WNW,288,19.6,19.6,79,0.00,CLR,,0.01,WeatherDisplay:10.37,2013-01-06 20:38:00,
2013-01-06 14:43:00,29.3,23.6,30.15,WNW,287,19.6,19.6,79,0.00,CLR,,0.01,WeatherDisplay:10.37,2013-01-06 20:43:00,
2013-01-06 14:48:00,29.3,23.6,30.15,NW,309,19.6,19.6,79,0.00,CLR,,0.01,WeatherDisplay:10.37,2013-01-06 20:48:00,
2013-01-06 14:54:00,29.4,23.7,30.16,WNW,291,20.0,20.0,79,0.00,CLR,,0.01,WeatherDisplay:10.37,2013-01-06 20:54:00,
2013-01-06 14:59:00,29.7,24.0,30.16,WNW,296,16.1,16.1,79,0.00,CLR,,0.01,WeatherDisplay:10.37,2013-01-06 20:59:00,
2013-01-06 15:01:00,29.9,24.2,30.16,NW,315,16.1,16.1,79,0.00,CLR,,0.01,WeatherDisplay:10.37,2013-01-06 21:01:00,
2013-01-06 15:06:00,30.0,24.0,30.16,WNW,289,20.0,20.0,78,0.00,CLR,,0.01,WeatherDisplay:10.37,2013-01-06 21:06:00,
2013-01-06 15:11:00,30.1,24.1,30.17,WNW,292,17.0,17.0,78,0.00,CLR,,0.01,WeatherDisplay:10.37,2013-01-06 21:11:00,
2013-01-06 15:16:00,29.9,23.9,30.16,WNW,290,14.0,14.0,78,0.00,CLR,,0.01,WeatherDisplay:10.37,2013-01-06 21:16:00,
2013-01-06 15:21:00,29.8,23.8,30.16,WNW,289,5.8,5.8,78,0.00,CLR,,0.01,WeatherDisplay:10.37,2013-01-06 21:21:00,
2013-01-06 15:26:00,29.9,24.2,30.17,WNW,285,9.2,9.2,79,0.00,CLR,,0.01,WeatherDisplay:10.37,2013-01-06 21:26:00,
2013-01-06 15:31:00,29.9,23.9,30.17,WNW,294,13.8,13.8,78,0.00,CLR,,0.01,WeatherDisplay:10.37,2013-01-06 21:31:00,
2013-01-06 15:36:00,30.0,24.0,30.17,WNW,285,15.0,15.0,78,0.00,CLR,,0.01,WeatherDisplay:10.37,2013-01-06 21:36:00,
2013-01-06 15:41:00,30.0,24.0,30.18,WNW,285,12.0,16.0,78,0.00,CLR,,0.01,WeatherDisplay:10.37,2013-01-06 21:41:00,
2013-01-06 15:46:00,30.2,24.2,30.19,WNW,298,13.0,13.0,78,0.00,CLR,,0.01,WeatherDisplay:10.37,2013-01-06 21:46:00,
2013-01-06 15:51:00,30.3,24.3,30.18,NW,318,12.0,12.0,78,0.00,CLR,,0.01,WeatherDisplay:10.37,2013-01-06 21:51:00,
2013-01-06 15:56:00,30.3,24.3,30.19,WNW,288,11.5,11.5,78,0.00,CLR,,0.01,WeatherDisplay:10.37,2013-01-06 21:56:00,
2013-01-06 16:01:00,30.1,24.1,30.19,WNW,288,20.0,20.0,78,0.00,CLR,,0.01,WeatherDisplay:10.37,2013-01-06 22:01:00,
2013-01-06 16:06:00,30.0,24.0,30.19,WNW,294,18.4,18.4,78,0.00,CLR,,0.01,WeatherDisplay:10.37,2013-01-06 22:06:00,
2013-01-06 16:11:00,30.0,24.3,30.19,WNW,289,13.0,13.0,79,0.00,CLR,,0.01,WeatherDisplay:10.37,2013-01-06 22:11:00,
2013-01-06 16:16:00,30.0,24.3,30.20,WNW,292,13.0,13.0,79,0.00,CLR,,0.01,WeatherDisplay:10.37,2013-01-06 22:16:00,
2013-01-06 16:21:00,30.0,24.3,30.20,WNW,292,15.0,15.0,79,0.00,CLR,,0.01,WeatherDisplay:10.37,2013-01-06 22:21:00,
2013-01-06 16:26:00,29.9,24.2,30.20,WNW,293,16.1,16.1,79,0.00,CLR,,0.01,WeatherDisplay:10.37,2013-01-06 22:26:00,
2013-01-06 16:31:00,29.9,24.5,30.20,WNW,298,12.7,12.7,80,0.00,CLR,,0.01,WeatherDisplay:10.37,2013-01-06 22:31:00,
2013-01-06 16:36:00,29.8,24.4,30.21,West,281,12.7,12.7,80,0.00,CLR,,0.01,WeatherDisplay:10.37,2013-01-06 22:36:00,
2013-01-06 16:41:00,29.7,24.3,30.21,WNW,283,10.0,16.0,80,0.00,CLR,,0.01,WeatherDisplay:10.37,2013-01-06 22:41:00,
2013-01-06 16:46:00,29.7,24.6,30.22,WNW,286,9.2,9.2,81,0.00,CLR,,0.01,WeatherDisplay:10.37,2013-01-06 22:46:00,
2013-01-06 16:51:00,29.6,24.5,30.21,WNW,283,11.5,11.5,81,0.00,CLR,,0.01,WeatherDisplay:10.37,2013-01-06 22:51:00,
2013-01-06 16:56:00,29.5,24.4,30.21,West,274,12.7,12.7,81,0.00,CLR,,0.01,WeatherDisplay:10.37,2013-01-06 22:56:00,
2013-01-06 17:01:00,29.4,24.3,30.21,West,275,11.0,11.0,81,0.00,CLR,,0.01,WeatherDisplay:10.37,2013-01-06 23:01:00,
2013-01-06 17:06:00,29.3,24.2,30.21,West,264,11.0,11.0,81,0.00,CLR,,0.01,WeatherDisplay:10.37,2013-01-06 23:06:00,
2013-01-06 17:12:00,29.2,24.1,30.22,West,277,10.0,10.0,81,0.00,CLR,,0.01,WeatherDisplay:10.37,2013-01-06 23:12:00,
2013-01-06 17:17:00,29.1,24.0,30.22,WNW,290,6.9,6.9,81,0.00,CLR,,0.01,WeatherDisplay:10.37,2013-01-06 23:17:00,
2013-01-06 17:21:00,29.0,23.9,30.22,WNW,284,10.4,10.4,81,0.00,CLR,,0.01,WeatherDisplay:10.37,2013-01-06 23:21:00,
2013-01-06 17:27:00,28.9,24.1,30.23,West,281,10.4,10.4,82,0.00,CLR,,0.01,WeatherDisplay:10.37,2013-01-06 23:27:00,
2013-01-06 17:32:00,28.8,24.0,30.23,West,278,9.2,9.2,82,0.00,CLR,,0.01,WeatherDisplay:10.37,2013-01-06 23:32:00,
2013-01-06 17:37:00,28.7,23.9,30.23,WNW,289,10.4,10.4,82,0.00,CLR,,0.01,WeatherDisplay:10.37,2013-01-06 23:37:00,
2013-01-06 17:42:00,28.7,23.9,30.23,WNW,282,10.4,10.4,82,0.00,CLR,,0.01,WeatherDisplay:10.37,2013-01-06 23:42:00,
2013-01-06 17:47:00,28.6,23.8,30.24,West,281,9.2,9.2,82,0.00,CLR,,0.01,WeatherDisplay:10.37,2013-01-06 23:47:00,
2013-01-06 17:52:00,28.5,23.7,30.24,WNW,283,8.1,8.1,82,0.00,CLR,,0.01,WeatherDisplay:10.37,2013-01-06 23:52:00,
2013-01-06 17:57:00,28.4,23.6,30.24,WNW,286,10.4,10.4,82,0.00,CLR,,0.01,WeatherDisplay:10.37,2013-01-06 23:57:00,
2013-01-06 18:02:00,28.4,23.9,30.25,West,281,10.4,10.4,83,0.00,CLR,,0.01,WeatherDisplay:10.37,2013-01-07 00:02:00,
2013-01-06 18:07:00,28.3,23.8,30.25,WNW,284,10.4,10.4,83,0.00,CLR,,0.01,WeatherDisplay:10.37,2013-01-07 00:07:00,
2013-01-06 18:12:00,28.2,23.7,30.25,WNW,285,10.4,10.4,83,0.00,CLR,,0.01,WeatherDisplay:10.37,2013-01-07 00:12:00,
2013-01-06 18:17:00,28.1,23.6,30.25,WNW,288,10.4,10.4,83,0.00,CLR,,0.01,WeatherDisplay:10.37,2013-01-07 00:17:00,
2013-01-06 18:22:00,28.0,23.5,30.26,WNW,283,6.9,6.9,83,0.00,CLR,,0.01,WeatherDisplay:10.37,2013-01-07 00:22:00,
2013-01-06 18:27:00,27.9,23.4,30.26,WNW,282,10.4,10.4,83,0.00,CLR,,0.01,WeatherDisplay:10.37,2013-01-07 00:27:00,
2013-01-06 18:32:00,27.8,23.3,30.26,WNW,292,10.4,10.4,83,0.00,CLR,,0.01,WeatherDisplay:10.37,2013-01-07 00:32:00,
2013-01-06 18:37:00,27.7,23.2,30.26,WNW,289,9.2,9.2,83,0.00,CLR,,0.01,WeatherDisplay:10.37,2013-01-07 00:37:00,
2013-01-06 18:42:00,27.7,23.2,30.26,WNW,288,7.0,7.0,83,0.00,CLR,,0.01,WeatherDisplay:10.37,2013-01-07 00:42:00,
2013-01-06 18:47:00,27.6,23.1,30.27,WNW,289,5.0,5.0,83,0.00,CLR,,0.01,WeatherDisplay:10.37,2013-01-07 00:47:00,
2013-01-06 18:52:00,27.5,23.0,30.27,WNW,288,5.8,5.8,83,0.00,CLR,,0.01,WeatherDisplay:10.37,2013-01-07 00:52:00,
2013-01-06 18:57:00,27.4,22.9,30.27,WNW,288,5.8,5.8,83,0.00,CLR,,0.01,WeatherDisplay:10.37,2013-01-07 00:57:00,
2013-01-06 19:02:00,27.3,22.8,30.27,WNW,289,5.8,5.8,83,0.00,CLR,,0.01,WeatherDisplay:10.37,2013-01-07 01:02:00,
2013-01-06 19:07:00,27.2,22.7,30.28,WNW,288,5.8,5.8,83,0.00,CLR,,0.01,WeatherDisplay:10.37,2013-01-07 01:07:00,
2013-01-06 19:12:00,27.2,22.7,30.28,WNW,288,0.0,0.0,83,0.00,CLR,,0.01,WeatherDisplay:10.37,2013-01-07 01:12:00,
2013-01-06 19:17:00,27.0,22.5,30.28,WNW,288,3.5,3.5,83,0.00,CLR,,0.01,WeatherDisplay:10.37,2013-01-07 01:17:00,
2013-01-06 19:22:00,26.9,22.4,30.28,WNW,288,3.5,3.5,83,0.00,CLR,,0.01,WeatherDisplay:10.37,2013-01-07 01:22:00,
2013-01-06 19:27:00,26.8,22.6,30.28,WNW,288,3.5,3.5,84,0.00,CLR,,0.01,WeatherDisplay:10.37,2013-01-07 01:27:00,
2013-01-06 19:32:00,26.7,22.2,30.29,WNW,288,2.3,2.3,83,0.00,CLR,,0.01,WeatherDisplay:10.37,2013-01-07 01:32:00,
2013-01-06 19:37:00,26.5,22.3,30.29,WNW,288,3.5,3.5,84,0.00,CLR,,0.01,WeatherDisplay:10.37,2013-01-07 01:37:00,
2013-01-06 19:42:00,26.4,22.2,30.28,WNW,288,3.5,3.5,84,0.00,CLR,,0.01,WeatherDisplay:10.37,2013-01-07 01:42:00,
2013-01-06 19:47:00,26.2,22.0,30.28,WNW,288,1.2,1.2,84,0.00,CLR,,0.01,WeatherDisplay:10.37,2013-01-07 01:47:00,
2013-01-06 19:52:00,26.1,21.9,30.29,WNW,283,5.8,5.8,84,0.00,CLR,,0.01,WeatherDisplay:10.37,2013-01-07 01:52:00,
2013-01-06 19:57:00,26.0,22.1,30.29,West,261,4.0,4.0,85,0.00,CLR,,0.01,WeatherDisplay:10.37,2013-01-07 01:57:00,
2013-01-06 20:02:00,25.8,21.9,30.28,West,266,4.6,4.6,85,0.00,CLR,,0.01,WeatherDisplay:10.37,2013-01-07 02:02:00,
2013-01-06 20:07:00,25.8,21.9,30.29,West,267,3.5,3.5,85,0.00,CLR,,0.01,WeatherDisplay:10.37,2013-01-07 02:07:00,
2013-01-06 20:12:00,25.6,21.7,30.29,West,267,1.2,1.2,85,0.00,CLR,,0.01,WeatherDisplay:10.37,2013-01-07 02:12:00,
2013-01-06 20:17:00,25.5,21.6,30.29,West,266,3.5,3.5,85,0.00,CLR,,0.01,WeatherDisplay:10.37,2013-01-07 02:17:00,
2013-01-06 20:22:00,25.3,21.4,30.29,West,266,3.5,3.5,85,0.00,CLR,,0.01,WeatherDisplay:10.37,2013-01-07 02:22:00,
2013-01-06 20:27:00,25.2,21.3,30.29,West,264,5.8,5.8,85,0.00,CLR,,0.01,WeatherDisplay:10.37,2013-01-07 02:27:00,
2013-01-06 20:32:00,25.0,21.4,30.30,West,261,3.5,3.5,86,0.00,CLR,,0.01,WeatherDisplay:10.37,2013-01-07 02:32:00,
2013-01-06 20:37:00,24.9,21.3,30.30,West,260,4.6,4.6,86,0.00,CLR,,0.01,WeatherDisplay:10.37,2013-01-07 02:37:00,
2013-01-06 20:42:00,24.9,21.3,30.30,West,261,2.0,2.0,86,0.00,CLR,,0.01,WeatherDisplay:10.37,2013-01-07 02:42:00,
2013-01-06 20:47:00,24.9,21.3,30.30,West,267,6.9,6.9,86,0.00,CLR,,0.01,WeatherDisplay:10.37,2013-01-07 02:47:00,
2013-01-06 20:52:00,24.9,21.3,30.30,West,277,4.0,4.0,86,0.00,CLR,,0.01,WeatherDisplay:10.37,2013-01-07 02:52:00,
2013-01-06 20:57:00,24.9,21.3,30.30,West,278,3.5,3.5,86,0.00,CLR,,0.01,WeatherDisplay:10.37,2013-01-07 02:57:00,
2013-01-06 21:02:00,24.9,21.3,30.30,West,277,5.8,5.8,86,0.00,CLR,,0.01,WeatherDisplay:10.37,2013-01-07 03:02:00,
2013-01-06 21:07:00,24.9,21.3,30.30,West,278,8.1,8.1,86,0.00,CLR,,0.01,WeatherDisplay:10.37,2013-01-07 03:07:00,
2013-01-06 21:12:00,24.8,21.2,30.30,West,277,6.0,6.0,86,0.00,CLR,,0.01,WeatherDisplay:10.37,2013-01-07 03:12:00,
2013-01-06 21:17:00,24.8,21.2,30.31,West,277,6.9,6.9,86,0.00,CLR,,0.01,WeatherDisplay:10.37,2013-01-07 03:17:00,
2013-01-06 21:22:00,24.7,21.1,30.30,West,277,2.3,2.3,86,0.00,CLR,,0.01,WeatherDisplay:10.37,2013-01-07 03:22:00,
2013-01-06 21:27:00,24.7,21.1,30.31,West,277,1.2,1.2,86,0.00,CLR,,0.01,WeatherDisplay:10.37,2013-01-07 03:27:00,
2013-01-06 21:32:00,24.6,21.0,30.31,West,277,1.2,0.0,86,0.00,CLR,,0.01,WeatherDisplay:10.37,2013-01-07 03:32:00,
2013-01-06 21:37:00,24.5,20.9,30.31,West,277,2.0,2.0,86,0.00,CLR,,0.01,WeatherDisplay:10.37,2013-01-07 03:37:00,
2013-01-06 21:42:00,24.4,21.1,30.31,West,277,3.5,3.5,87,0.00,CLR,,0.01,WeatherDisplay:10.37,2013-01-07 03:42:00,
2013-01-06 21:47:00,24.4,21.1,30.31,West,277,3.5,3.5,87,0.00,CLR,,0.01,WeatherDisplay:10.37,2013-01-07 03:47:00,
2013-01-06 21:52:00,24.5,21.2,30.32,West,277,3.5,3.5,87,0.00,CLR,,0.01,WeatherDisplay:10.37,2013-01-07 03:52:00,
2013-01-06 21:57:00,24.5,21.2,30.31,West,277,3.5,3.5,87,0.00,CLR,,0.01,WeatherDisplay:10.37,2013-01-07 03:57:00,
2013-01-06 22:02:00,24.4,21.1,30.31,West,277,2.3,2.3,87,0.00,CLR,,0.01,WeatherDisplay:10.37,2013-01-07 04:02:00,
2013-01-06 22:07:00,24.4,21.1,30.31,West,277,0.0,0.0,87,0.00,CLR,,0.01,WeatherDisplay:10.37,2013-01-07 04:07:00,
2013-01-06 22:12:00,24.2,20.9,30.30,West,277,0.0,0.0,87,0.00,CLR,,0.01,WeatherDisplay:10.37,2013-01-07 04:12:00,
2013-01-06 22:17:00,24.0,20.7,30.31,West,278,0.0,0.0,87,0.00,CLR,,0.01,WeatherDisplay:10.37,2013-01-07 04:17:00,
2013-01-06 22:22:00,23.8,20.5,30.31,West,277,3.0,3.0,87,0.00,CLR,,0.01,WeatherDisplay:10.37,2013-01-07 04:22:00,
2013-01-06 22:27:00,23.4,20.1,30.31,West,277,1.2,1.2,87,0.00,CLR,,0.01,WeatherDisplay:10.37,2013-01-07 04:27:00,
2013-01-06 22:32:00,23.1,19.8,30.30,West,278,0.0,0.0,87,0.00,CLR,,0.01,WeatherDisplay:10.37,2013-01-07 04:32:00,
2013-01-06 22:37:00,23.0,19.7,30.30,West,278,0.0,0.0,87,0.00,CLR,,0.01,WeatherDisplay:10.37,2013-01-07 04:37:00,
2013-01-06 22:42:00,22.9,19.6,30.30,West,277,1.2,1.2,87,0.00,CLR,,0.01,WeatherDisplay:10.37,2013-01-07 04:42:00,
2013-01-06 22:47:00,22.8,19.8,30.30,West,278,0.0,0.0,88,0.00,CLR,,0.01,WeatherDisplay:10.37,2013-01-07 04:47:00,
2013-01-06 22:52:00,22.7,19.7,30.30,West,278,0.0,0.0,88,0.00,CLR,,0.01,WeatherDisplay:10.37,2013-01-07 04:52:00,
2013-01-06 22:57:00,22.7,19.7,30.31,West,277,0.0,0.0,88,0.00,CLR,,0.01,WeatherDisplay:10.37,2013-01-07 04:57:00,
2013-01-06 23:00:00,22.6,19.6,30.31,West,278,0.0,0.0,88,0.00,CLR,,0.01,WeatherDisplay:10.37,2013-01-07 05:00:00,
2013-01-06 23:01:00,22.5,19.5,30.31,West,277,0.0,0.0,88,0.00,CLR,,0.01,WeatherDisplay:10.37,2013-01-07 05:01:00,
2013-01-06 23:02:00,22.5,19.5,30.31,West,278,0.0,0.0,88,0.00,CLR,,0.01,WeatherDisplay:10.37,2013-01-07 05:02:00,
2013-01-06 23:07:00,22.4,19.4,30.31,West,278,0.0,0.0,88,0.00,CLR,,0.01,WeatherDisplay:10.37,2013-01-07 05:07:00,
2013-01-06 23:12:00,22.3,19.6,30.30,West,277,0.0,0.0,89,0.00,CLR,,0.01,WeatherDisplay:10.37,2013-01-07 05:12:00,
2013-01-06 23:17:00,22.2,19.5,30.30,West,277,0.0,0.0,89,0.00,CLR,,0.01,WeatherDisplay:10.37,2013-01-07 05:17:00,
2013-01-06 23:22:00,22.1,19.4,30.30,West,277,1.2,0.0,89,0.00,CLR,,0.01,WeatherDisplay:10.37,2013-01-07 05:22:00,
2013-01-06 23:27:00,21.9,19.2,30.31,West,278,2.3,2.3,89,0.00,CLR,,0.01,WeatherDisplay:10.37,2013-01-07 05:27:00,
2013-01-06 23:32:00,21.8,19.1,30.31,West,277,1.2,1.2,89,0.00,CLR,,0.01,WeatherDisplay:10.37,2013-01-07 05:32:00,
2013-01-06 23:37:00,21.6,18.9,30.31,West,277,1.2,1.2,89,0.00,CLR,,0.01,WeatherDisplay:10.37,2013-01-07 05:37:00,
2013-01-06 23:42:00,21.5,18.8,30.32,West,277,0.0,0.0,89,0.00,CLR,,0.01,WeatherDisplay:10.37,2013-01-07 05:42:00,
2013-01-06 23:47:00,21.3,18.6,30.32,West,277,0.0,0.0,89,0.00,CLR,,0.01,WeatherDisplay:10.37,2013-01-07 05:47:00,
2013-01-06 23:52:00,21.1,18.4,30.32,West,277,2.3,2.3,89,0.00,CLR,,0.01,WeatherDisplay:10.37,2013-01-07 05:52:00,
2013-01-06 23:57:00,20.8,18.1,30.32,West,277,3.5,3.5,89,0.00,CLR,,0.01,WeatherDisplay:10.37,2013-01-07 05:57:00,